Preview of NWS' New Version of Forecast
This preview is not operational and should not be used for support decisions.

Regional Weather Roundup (RWR)

Issued by National Weather Service (NWS)

                            
000
ASUS45 KBOI 220210
RWRID 

IDAHO REGIONAL WEATHER ROUNDUP
NATIONAL WEATHER SERVICE BOISE ID
800 PM MDT SAT SEP 21 2019

NOTE: "FAIR" INDICATES FEW OR NO CLOUDS BELOW 12000 FEET
WITH NO SIGNIFICANT WEATHER AND/OR OBSTRUCTIONS TO VISIBILITY

IDZ012-014-220300-
SOUTHWEST IDAHO

  
CITY           SKY/WX    TMP DP  RH WIND       PRES   REMARKS
BOISE          CLEAR     64  40  41 N5        30.06R                  
CALDWELL       CLEAR     63  45  51 N3        30.05S                  
MOUNTAIN HOME  CLEAR     66  38  36 NW9       30.06R                  
$$

IDZ016-017-220300-
SOUTHCENTRAL IDAHO

  
CITY           SKY/WX    TMP DP  RH WIND       PRES   REMARKS
BURLEY         CLEAR     52  38  58 S5        30.09S                  
JEROME         PTCLDY    60  37  42 SW5       30.09S                  
TWIN FALLS     PTCLDY    51  37  58 SW5       30.10S                  
$$

IDZ019>023-220300-
SOUTHEAST IDAHO

  
CITY           SKY/WX    TMP DP  RH WIND       PRES   REMARKS
IDAHO FALLS    MOCLDY    53  39  59 S7        30.11S                  
POCATELLO      PTCLDY    54  36  50 S10       30.12R                  
REXBURG        MOCLDY    51  41  68 S5        30.11S                  
$$

IDZ006-010-011-018-031-032-220300-
CENTRAL IDAHO MOUNTAINS

  
CITY           SKY/WX    TMP DP  RH WIND       PRES   REMARKS
MCCALL         PTCLDY    55  37  50 W5        30.09S                  
HAILEY         PTCLDY    55  39  54 SE6       30.12R                  
STANLEY          N/A     46  36  68 S3        30.14S                  
SALMON         PTCLDY    52  42  69 CALM      30.08R                  
CHALLIS        PTCLDY    53  38  56 NW6       30.07R                  
$$

IDZ002-004-006-007-026-220300-
NORTHERN IDAHO

  
CITY           SKY/WX    TMP DP  RH WIND       PRES   REMARKS
LEWISTON       CLEAR     71  45  39 CALM      29.98S                  
LOWELL           N/A     58  54  86 CALM      30.04R                  
COEUR D'ALENE  CLEAR     62  46  55 SE3       30.01F                  
MULLAN PASS    CLOUDY    43  40  89 VRB3      30.10S                  
$$